カタログに戻る

SL-16 DEB

運用中LEO
NORAD 25409·DEBRIS·🇷🇺 Russia

打ち上げ Jul 28, 1998 から Baikonur Cosmodrome

Loading…

次のパス (今後24時間)

TLE

最新Source: Space-Track

元期: Sep 14, 2026, 03:57 UTC

1 25409U 98045C   26257.16521591  .00000092  00000-0  12223-3 0  9992
2 25409  71.0794 209.1051 0190128  99.4893 275.9778 13.75232499411120

AllMySatでSL-16 DEBをリアルタイム追跡

Download on the App Store